When you browse on this site, cookies collect data to enhance your experience and personalize the content and advertising you see.
Visit our Privacy Policy to learn more. By continuing to use the site, you agree to this use of cookies and data.
  • In Romania
  • List of Countries
  • For 7 days
  • Water Temperature
  • Weather Map
  • Weather Widgets
  • user-avatar
    Login

    Hourly Weather Gwatemala

    Today, 25 August, Sunday

    Time Temperature Precipitation Wind Pressure Humidity
    00:00 +18°C° 0 mm 1 mps 637 mmHg 95%
    01:00 +18°C° 0 mm 1 mps 636 mmHg 94%
    02:00 +16°C° 0 mm 1 mps 636 mmHg 94%
    03:00 +16°C° 0 mm 1 mps 635 mmHg 93%
    04:00 +16°C° 0 mm 1 mps 635 mmHg 92%
    05:00 +15°C° 0 mm 1 mps 635 mmHg 91%
    06:00 +15°C° 0 mm 1 mps 635 mmHg 90%
    07:00 +19°C° 0 mm 1 mps 637 mmHg 82%
    08:00 +21°C° 0 mm 1 mps 638 mmHg 74%
    09:00 +24°C° 0 mm 1 mps 639 mmHg 66%
    10:00 +25°C° 0 mm 1 mps 639 mmHg 62%
    11:00 +26°C° 0 mm 1 mps 639 mmHg 57%
    12:00 +27°C° 0 mm 1 mps 639 mmHg 53%
    13:00 +27°C° 0.2 mm 1 mps 638 mmHg 55%
    14:00 +27°C° 0.2 mm 1 mps 638 mmHg 57%
    15:00 +26°C° 0.2 mm 1 mps 637 mmHg 59%
    16:00 +25°C° 0.3 mm 1 mps 637 mmHg 70%
    17:00 +23°C° 0.3 mm 1 mps 636 mmHg 81%
    18:00 +21°C° 0.3 mm 1 mps 636 mmHg 92%
    19:00 +20°C° 0.1 mm 1 mps 636 mmHg 93%
    20:00 +19°C° 0.1 mm 1 mps 636 mmHg 93%
    21:00 +18°C° 0.1 mm 1 mps 636 mmHg 94%
    22:00 +18°C° 0 mm 1 mps 636 mmHg 94%
    23:00 +18°C° 0 mm 1 mps 636 mmHg 94%

    Tomorrow, 26 August, Monday

    Time Temperature Precipitation Wind Pressure Humidity
    00:00 +16°C° 0 mm 1 mps 636 mmHg 94%
    01:00 +16°C° 0 mm 1 mps 636 mmHg 94%
    02:00 +16°C° 0 mm 1 mps 635 mmHg 94%
    03:00 +16°C° 0 mm 1 mps 635 mmHg 94%
    04:00 +16°C° 0 mm 1 mps 635 mmHg 94%
    05:00 +16°C° 0 mm 1 mps 635 mmHg 93%
    06:00 +15°C° 0 mm 1 mps 635 mmHg 93%
    07:00 +19°C° 0 mm 1 mps 636 mmHg 85%
    08:00 +22°C° 0 mm 1 mps 637 mmHg 78%
    09:00 +22°C° 0 mm 0 mps 639 mmHg 70%
    10:00 +24°C° 0.9 mm 1 mps 638 mmHg 74%
    11:00 +24°C° 0.9 mm 1 mps 638 mmHg 78%
    12:00 +25°C° 0.9 mm 1 mps 637 mmHg 81%
    13:00 +25°C° 1.1 mm 1 mps 637 mmHg 79%
    14:00 +25°C° 1.1 mm 1 mps 637 mmHg 77%
    15:00 +25°C° 1.1 mm 1 mps 636 mmHg 74%
    16:00 +24°C° 0.4 mm 1 mps 636 mmHg 80%
    17:00 +21°C° 0.4 mm 0 mps 636 mmHg 85%
    18:00 +19°C° 0.4 mm 0 mps 635 mmHg 91%
    19:00 +18°C° 0 mm 0 mps 636 mmHg 92%
    20:00 +18°C° 0 mm 0 mps 636 mmHg 92%
    21:00 +19°C° 0 mm 1 mps 636 mmHg 93%
    22:00 +18°C° 0 mm 1 mps 636 mmHg 92%
    23:00 +18°C° 0 mm 1 mps 636 mmHg 92%

    Day after tomorrow, 27 August, Tuesday

    Time Temperature Precipitation Wind Pressure Humidity
    00:00 +18°C° 0 mm 1 mps 636 mmHg 91%
    01:00 +16°C° 0 mm 1 mps 636 mmHg 91%
    02:00 +16°C° 0 mm 1 mps 635 mmHg 91%
    03:00 +16°C° 0 mm 1 mps 635 mmHg 91%
    04:00 +16°C° 0 mm 1 mps 635 mmHg 92%
    05:00 +16°C° 0 mm 1 mps 635 mmHg 93%
    06:00 +16°C° 0 mm 1 mps 635 mmHg 93%
    07:00 +19°C° 0 mm 1 mps 636 mmHg 87%
    08:00 +22°C° 0 mm 1 mps 637 mmHg 80%
    09:00 +24°C° 0 mm 1 mps 638 mmHg 73%
    10:00 +25°C° 0 mm 1 mps 638 mmHg 68%
    11:00 +26°C° 0 mm 1 mps 638 mmHg 64%
    12:00 +27°C° 0 mm 1 mps 638 mmHg 59%
    13:00 +27°C° 0.5 mm 1 mps 638 mmHg 63%
    14:00 +26°C° 0.5 mm 1 mps 637 mmHg 66%
    15:00 +26°C° 0.5 mm 1 mps 636 mmHg 70%
    16:00 +24°C° 0.7 mm 1 mps 636 mmHg 78%
    17:00 +23°C° 0.7 mm 1 mps 636 mmHg 85%
    18:00 +19°C° 0.7 mm 0 mps 636 mmHg 93%
    19:00 +18°C° 0.8 mm 0 mps 636 mmHg 93%
    20:00 +20°C° 0.8 mm 1 mps 637 mmHg 94%
    21:00 +19°C° 0.8 mm 1 mps 637 mmHg 94%
    22:00 +18°C° 0.5 mm 1 mps 637 mmHg 94%
    23:00 +18°C° 0.5 mm 1 mps 637 mmHg 94%

    28 August, Wednesday

    Time Temperature Precipitation Wind Pressure Humidity
    00:00 +18°C° 0.5 mm 1 mps 636 mmHg 94%
    01:00 +18°C° 0 mm 1 mps 636 mmHg 94%
    02:00 +16°C° 0 mm 1 mps 636 mmHg 94%
    03:00 +16°C° 0 mm 1 mps 636 mmHg 94%
    04:00 +16°C° 0 mm 1 mps 636 mmHg 95%
    05:00 +16°C° 0 mm 1 mps 636 mmHg 95%
    06:00 +16°C° 0 mm 1 mps 636 mmHg 95%
    07:00 +19°C° 0 mm 1 mps 637 mmHg 88%
    08:00 +21°C° 0 mm 1 mps 638 mmHg 81%
    09:00 +24°C° 0 mm 1 mps 639 mmHg 74%
    10:00 +25°C° 0 mm 1 mps 639 mmHg 68%
    11:00 +26°C° 0 mm 1 mps 639 mmHg 62%
    12:00 +27°C° 0 mm 1 mps 639 mmHg 57%
    13:00 +26°C° 0.2 mm 1 mps 639 mmHg 58%
    14:00 +26°C° 0.2 mm 1 mps 638 mmHg 60%
    15:00 +26°C° 0.2 mm 1 mps 638 mmHg 61%
    16:00 +24°C° 0.3 mm 1 mps 637 mmHg 71%
    17:00 +22°C° 0.3 mm 1 mps 637 mmHg 81%
    18:00 +18°C° 0.3 mm 0 mps 636 mmHg 91%
    19:00 +19°C° 0.1 mm 1 mps 637 mmHg 92%
    20:00 +19°C° 0.1 mm 1 mps 637 mmHg 92%
    21:00 +18°C° 0.1 mm 1 mps 637 mmHg 93%
    22:00 +16°C° 0.1 mm 1 mps 637 mmHg 94%
    23:00 +16°C° 0.1 mm 1 mps 637 mmHg 94%

    29 August, Thursday

    Time Temperature Precipitation Wind Pressure Humidity
    00:00 +16°C° 0.1 mm 1 mps 637 mmHg 94%
    01:00 +16°C° 0 mm 1 mps 637 mmHg 95%
    02:00 +15°C° 0 mm 1 mps 636 mmHg 95%
    03:00 +15°C° 0 mm 1 mps 636 mmHg 95%
    04:00 +15°C° 0 mm 1 mps 636 mmHg 95%
    05:00 +15°C° 0 mm 1 mps 636 mmHg 95%
    06:00 +15°C° 0 mm 1 mps 636 mmHg 95%
    07:00 +18°C° 0 mm 1 mps 637 mmHg 87%
    08:00 +20°C° 0 mm 1 mps 638 mmHg 79%
    09:00 +22°C° 0 mm 1 mps 639 mmHg 70%
    10:00 +24°C° 0 mm 1 mps 639 mmHg 63%
    11:00 +25°C° 0 mm 1 mps 639 mmHg 56%
    12:00 +26°C° 0 mm 2 mps 639 mmHg 48%
    13:00 +26°C° 0 mm 1 mps 639 mmHg 48%
    14:00 +26°C° 0 mm 1 mps 638 mmHg 49%
    15:00 +26°C° 0 mm 1 mps 638 mmHg 49%
    16:00 +24°C° 0.1 mm 1 mps 637 mmHg 60%
    17:00 +22°C° 0.1 mm 1 mps 637 mmHg 70%
    18:00 +18°C° 0.1 mm 0 mps 637 mmHg 81%
    19:00 +19°C° 0.1 mm 1 mps 637 mmHg 82%
    20:00 +18°C° 0.1 mm 1 mps 637 mmHg 83%
    21:00 +18°C° 0.1 mm 1 mps 637 mmHg 85%
    22:00 +18°C° 0 mm 1 mps 637 mmHg 84%
    23:00 +18°C° 0 mm 1 mps 637 mmHg 83%

    30 August, Friday

    Time Temperature Precipitation Wind Pressure Humidity
    00:00 +18°C° 0 mm 1 mps 637 mmHg 83%
    01:00 +18°C° 0 mm 1 mps 637 mmHg 82%
    02:00 +18°C° 0 mm 1 mps 636 mmHg 81%
    03:00 +16°C° 0 mm 1 mps 636 mmHg 81%
    04:00 +16°C° 0 mm 1 mps 636 mmHg 80%
    05:00 +16°C° 0 mm 1 mps 636 mmHg 80%
    06:00 +16°C° 0 mm 1 mps 636 mmHg 79%
    07:00 +19°C° 0 mm 1 mps 637 mmHg 72%
    08:00 +21°C° 0 mm 1 mps 638 mmHg 64%
    09:00 +23°C° 0 mm 1 mps 639 mmHg 57%
    10:00 +24°C° 0 mm 1 mps 639 mmHg 53%
    11:00 +25°C° 0 mm 1 mps 639 mmHg 50%
    12:00 +26°C° 0 mm 1 mps 639 mmHg 46%
    13:00 +26°C° 0.1 mm 1 mps 638 mmHg 49%
    14:00 +26°C° 0.1 mm 1 mps 638 mmHg 52%
    15:00 +26°C° 0.1 mm 1 mps 637 mmHg 54%
    16:00 +24°C° 0.1 mm 1 mps 637 mmHg 64%
    17:00 +20°C° 0.1 mm 0 mps 636 mmHg 74%
    18:00 +18°C° 0.1 mm 0 mps 636 mmHg 83%
    19:00 +18°C° 0.1 mm 0 mps 636 mmHg 84%
    20:00 +19°C° 0.1 mm 1 mps 637 mmHg 85%
    21:00 +18°C° 0.1 mm 1 mps 637 mmHg 85%
    22:00 +18°C° 0 mm 1 mps 637 mmHg 87%
    23:00 +16°C° 0 mm 1 mps 637 mmHg 88%
    Show more